Wind_Speed
23 23 21 20 20 21 21 21 21 22 20 21 21 21 20 22 24 12 12 14 15 13 10 8 13 20 18 17 19 19 6 10 14 18 13 12 11 16 15 11 16 9 24 28 29
25 23 23 22 23 23 23 23 23 22 21 21 22 20 21 22 20 24 27 27 14 10 11 16 14 14 13 18 16 10 8 10 17 15 14 12 14 14 14 13 14 25 24 29 27
26 26 25 24 24 25 25 25 24 22 23 22 21 20 19 19 14 18 10 20 18 16 17 18 17 17 15 19 16 9 8 16 15 15 13 15 14 12 13 14 24 24 24 25 25
29 28 27 27 26 26 26 27 25 24 23 23 22 19 17 7 6 6 7 6 15 15 17 21 17 16 17 20 3 12 7 15 15 12 11 14 11 9 13 17 21 24 27 22 20
31 30 29 28 28 28 28 28 25 25 24 24 21 18 8 9 20 12 7 7 9 17 22 19 17 16 19 18 3 11 12 14 12 14 12 11 12 12 10 17 21 21 23 28 20
31 32 32 30 30 29 30 28 27 26 24 23 19 14 6 18 19 10 10 9 11 19 23 22 16 17 19 19 9 5 7 14 16 12 11 13 11 12 13 17 20 20 19 17 25
32 33 34 33 32 30 30 30 27 24 21 19 14 5 12 21 10 10 11 15 15 21 19 24 21 17 14 14 11 10 14 11 17 12 7 14 14 14 16 16 19 18 17 17 16
32 34 36 34 33 31 34 30 24 21 18 12 9 7 9 19 27 22 12 17 16 19 23 20 20 18 19 18 10 16 14 14 17 13 11 12 10 15 17 17 17 18 16 15 16
33 35 37 35 34 34 34 25 23 18 10 6 5 10 16 7 22 20 18 18 18 20 20 20 18 17 17 15 14 16 13 16 2 13 17 9 2 15 18 17 17 16 16 15 14
34 37 39 35 35 36 31 23 15 8 6 7 16 9 20 16 17 20 20 20 16 14 15 16 12 16 16 15 15 19 16 16 16 14 20 19 13 18 19 19 18 18 17 17 17
35 38 40 36 35 26 30 9 4 5 13 13 13 14 18 19 19 18 23 22 15 18 19 20 14 18 22 23 24 20 25 25 14 10 15 25 18 21 22 20 20 19 18 18 18
36 38 40 38 35 16 16 8 8 9 12 19 26 25 30 14 10 15 26 20 17 19 20 16 22 23 24 24 24 22 17 25 18 26 14 13 25 26 22 21 21 20 19 19 19
37 38 40 39 22 12 15 8 11 14 8 16 26 26 26 19 17 19 23 23 20 22 24 24 23 23 24 25 23 23 20 16 17 16 16 9 13 17 24 19 19 20 20 18 20
37 38 39 43 9 22 9 9 13 13 6 10 15 24 28 24 21 20 26 22 18 23 23 22 23 25 25 25 23 22 20 12 13 12 12 15 12 14 15 21 19 19 20 20 19
37 37 40 27 20 12 17 17 15 12 6 7 17 12 21 30 9 26 30 23 26 19 21 24 23 25 24 27 24 21 20 13 18 13 14 17 11 8 13 17 22 21 20 21 19
38 38 40 19 13 20 19 17 14 6 10 8 10 14 24 25 30 20 23 23 21 24 21 24 22 25 25 26 25 23 19 19 18 14 12 14 11 8 16 17 21 22 20 20 21
41 43 33 20 9 14 15 11 6 10 10 13 20 17 24 25 28 25 27 26 23 23 22 22 25 24 24 24 27 25 20 13 15 13 14 17 17 14 7 15 14 19 19 19 19
44 39 24 18 19 17 13 9 13 11 26 4 17 18 23 23 25 28 26 25 27 25 18 20 19 27 21 30 23 22 22 15 17 11 15 16 14 12 11 10 6 18 20 21 20
42 27 24 20 21 13 8 14 8 18 12 18 13 15 20 19 18 26 29 26 28 29 23 19 23 21 27 24 23 23 23 23 24 16 12 14 17 17 10 10 10 12 18 20 21
31 29 26 21 12 13 10 23 20 23 16 21 19 17 18 23 26 25 26 26 29 30 28 23 15 22 25 19 24 25 18 22 16 20 18 17 12 11 14 13 13 10 12 18 19
16 8 19 10 9 9 15 22 24 32 28 13 19 19 18 19 23 19 28 22 27 27 28 27 21 18 24 23 25 18 23 23 20 17 16 14 13 17 13 13 13 12 15 14 18
13 8 7 8 9 9 16 24 24 30 25 23 19 20 19 20 20 20 25 27 24 27 30 26 18 17 20 25 25 24 26 26 14 17 15 14 14 15 17 17 17 19 16 11 8
9 13 27 19 12 13 19 24 26 27 26 23 22 19 20 21 18 16 19 23 22 23 26 22 21 16 21 17 26 25 23 25 22 17 19 16 15 17 13 5 16 14 10 3 3
5 7 6 12 12 19 21 17 20 26 26 19 16 18 20 21 20 15 20 14 13 19 7 20 22 20 17 19 18 23 24 24 24 16 16 18 19 18 16 9 9 9 7 2 2
7 8 12 10 10 16 14 19 14 17 5 10 15 18 19 19 19 21 20 20 10 3 5 8 19 21 27 28 25 24 24 26 26 22 21 18 22 16 14 8 11 12 10 7 6
8 6 9 16 13 15 12 9 12 16 15 13 14 17 14 20 20 17 17 18 14 5 14 14 14 17 24 25 28 27 23 27 27 26 24 23 22 18 17 16 13 9 10 8 5
11 15 6 12 14 13 11 15 15 14 16 10 13 14 12 17 19 19 17 18 17 15 17 19 14 15 19 22 23 23 26 23 24 24 23 22 19 18 18 11 7 6 9 12 11
Wind_Direction
2 359 356 351 349 347 341 337 334 332 330 327 328 326 324 321 314 294 257 261 227 230 197 226 231 258 263 264 253 256 237 266 69 91 106 121 94 76 87 119 145 101 138 143 150
2 358 353 349 345 343 340 334 331 329 324 322 323 322 321 322 309 276 259 253 249 215 206 230 240 247 270 267 270 259 273 53 87 110 107 115 113 128 128 118 112 112 125 144 154
1 357 354 348 343 339 336 331 328 324 320 318 318 317 318 323 288 282 224 215 224 232 229 238 249 270 268 271 281 293 57 89 71 102 118 101 126 146 142 128 127 134 143 151 159
358 354 351 348 343 337 333 328 323 318 316 316 313 311 312 305 283 108 139 200 224 221 229 241 241 256 265 265 230 274 78 89 114 104 142 120 146 122 66 125 128 138 148 153 163
356 354 349 344 340 336 333 326 319 314 313 312 309 304 317 242 250 245 190 194 212 208 218 228 232 241 260 274 108 274 111 111 103 95 92 155 131 102 105 117 126 145 154 160 165
353 351 347 343 337 332 329 322 316 311 308 308 303 295 253 259 257 191 189 190 200 203 219 229 231 240 269 292 277 219 141 131 128 121 162 107 126 112 116 128 136 150 160 172 159
351 349 345 342 337 331 325 318 311 305 303 301 295 253 259 244 258 233 226 208 217 207 221 225 235 249 247 271 256 259 202 157 132 152 145 136 165 116 136 139 147 159 170 173 178
349 347 344 341 336 331 324 313 307 299 296 288 276 210 257 255 240 240 237 217 214 214 222 230 235 253 269 282 281 239 206 187 150 175 135 100 108 130 147 148 158 167 177 176 178
348 346 342 340 335 330 322 310 300 292 278 256 198 218 258 247 228 226 216 221 198 213 212 232 237 239 248 255 254 226 225 134 123 187 115 124 1 149 162 161 167 173 178 181 184
346 345 342 338 333 331 315 315 285 276 247 237 260 263 247 227 206 213 206 220 200 203 207 217 230 229 232 235 230 213 209 138 176 198 137 119 185 239 176 172 174 180 181 186 186
345 344 341 337 333 328 325 334 210 194 235 227 203 217 279 208 221 193 202 210 200 204 204 202 216 214 222 229 240 247 137 186 251 211 185 163 176 213 185 177 178 184 183 187 194
343 343 341 336 332 313 308 277 38 322 290 254 250 253 257 206 194 203 187 202 199 205 204 190 221 219 221 221 238 250 249 180 184 228 209 193 184 178 181 188 179 184 185 190 193
340 341 341 334 329 310 312 316 325 323 270 262 231 229 228 241 210 200 187 202 199 210 204 217 214 221 226 234 229 243 249 220 163 185 199 227 207 183 178 189 186 183 185 193 189
338 338 340 336 310 324 296 5 323 323 279 250 203 220 218 225 226 226 196 200 206 213 217 220 228 211 226 230 237 242 244 257 198 187 224 210 248 179 193 177 189 190 183 190 193
336 335 336 332 292 298 333 325 318 284 279 142 170 190 192 205 193 215 191 207 220 206 210 220 223 219 215 228 231 243 251 239 255 194 239 184 232 221 208 189 183 190 193 189 188
334 331 332 330 266 268 291 313 293 232 238 178 139 183 191 197 221 185 209 204 221 237 220 230 219 233 226 218 233 237 241 242 242 247 238 231 228 241 195 194 185 183 187 192 183
331 326 315 283 260 328 311 288 224 232 229 215 165 190 196 194 208 226 199 194 212 214 229 219 235 220 234 231 223 230 232 235 235 228 242 236 209 235 294 169 188 174 181 190 186
329 325 306 262 262 274 279 245 237 241 236 333 175 189 208 193 205 217 190 209 207 218 218 219 216 228 203 231 225 222 225 231 227 226 234 235 249 238 215 149 185 170 181 183 191
332 320 293 267 228 237 241 222 222 239 284 236 233 200 198 204 197 210 224 206 209 217 221 213 227 206 231 217 232 224 222 236 248 245 250 241 217 233 207 214 182 180 179 180 187
323 305 275 245 190 218 235 234 230 270 288 325 286 238 226 203 206 196 216 207 217 210 229 239 223 221 212 214 226 236 222 230 235 246 248 242 252 195 200 208 213 190 234 178 184
307 294 268 175 218 230 238 242 249 265 282 289 294 281 267 230 214 205 215 215 211 218 212 235 244 227 210 199 218 212 232 233 233 236 256 254 262 199 162 194 191 196 235 209 185
303 273 194 234 246 237 242 244 264 269 272 271 264 280 290 299 298 243 214 216 210 208 215 218 235 247 230 204 207 225 221 233 229 228 246 266 263 270 161 177 185 203 214 221 208
302 286 279 277 253 252 251 250 245 253 254 262 267 268 274 281 296 276 283 219 214 210 211 208 224 237 244 241 196 213 228 228 236 231 225 237 258 269 280 263 175 186 231 124 125
291 290 273 222 239 263 283 282 247 235 250 260 279 264 272 270 264 276 294 287 217 218 9 219 215 225 237 228 202 200 222 232 233 233 237 247 241 247 260 154 145 181 181 183 191
290 293 338 295 325 319 302 262 303 294 269 283 254 259 264 271 263 258 266 278 257 234 266 236 232 227 227 250 239 203 210 221 236 235 234 237 245 252 261 245 197 197 174 211 192
294 319 327 296 297 286 282 289 280 281 292 273 235 256 261 251 263 295 335 275 275 294 231 237 246 252 236 233 247 257 228 213 224 235 246 244 252 253 229 256 246 178 182 189 211
318 312 303 305 299 285 335 329 262 257 254 302 303 318 293 3 342 324 308 297 297 294 294 240 228 238 234 232 247 248 244 230 214 226 237 241 246 253 261 267 270 244 228 196 205
Height
811 808 805 802 799 796 792 789 785 782 778 775 773 770 767 764 759 757 751 745 743 744 745 746 746 737 732 729 719 711 742 773 729 738 746 731 739 734 738 750 751 756 773 786 795
811 807 804 800 797 794 790 787 784 780 777 774 771 769 765 762 757 749 741 741 742 743 745 742 737 733 729 721 710 714 728 727 711 720 734 732 740 744 748 755 759 767 778 788 794
811 807 803 799 796 792 788 785 781 778 775 772 770 767 765 761 753 730 730 734 738 740 742 739 734 729 732 715 707 708 726 710 715 717 722 736 742 734 747 759 760 776 782 788 794
811 806 802 798 794 791 786 782 778 776 773 770 768 766 764 764 762 730 731 734 736 738 741 737 732 738 734 728 705 724 709 708 715 717 724 736 733 740 740 748 750 764 778 789 793
811 806 801 797 792 788 784 780 776 773 770 768 765 763 763 756 739 732 731 732 733 736 736 733 733 734 736 717 710 715 711 708 712 717 725 726 737 742 749 745 753 764 773 782 789
811 805 800 795 790 785 781 776 773 769 767 764 762 761 763 758 729 727 731 731 731 734 733 730 727 722 723 719 716 705 708 710 713 726 724 737 743 742 749 749 759 766 772 774 780
810 805 799 793 788 782 777 772 768 765 763 761 759 760 754 737 723 723 726 727 729 730 729 727 723 722 718 723 702 706 722 714 718 724 730 729 750 758 748 752 763 769 770 772 774
809 804 798 791 785 780 773 767 763 760 758 757 756 760 744 723 724 722 722 722 725 725 728 724 723 720 720 709 710 719 716 741 720 722 725 738 774 751 747 756 765 767 768 770 772
808 802 795 789 782 776 768 761 757 755 754 754 755 753 733 714 716 714 718 716 719 721 724 723 721 725 723 737 735 723 746 740 744 716 729 747 777 749 743 753 762 764 767 769 772
807 800 793 786 779 772 762 756 752 752 753 754 750 751 716 709 707 711 713 714 714 716 721 724 726 736 734 738 759 738 738 740 748 728 728 763 783 753 741 747 755 758 762 765 768
806 799 791 783 776 769 760 755 751 751 749 729 715 716 698 700 700 704 709 711 710 716 734 726 743 747 735 725 713 710 732 757 733 718 725 757 766 755 735 736 747 751 755 759 761
805 798 790 781 773 766 764 756 749 752 744 720 714 708 698 693 703 699 703 713 717 730 723 732 739 720 713 712 714 714 723 733 727 721 721 721 742 727 729 729 731 741 747 750 755
804 797 790 779 770 765 761 754 753 749 743 709 696 697 695 691 698 698 696 704 715 725 722 727 721 710 712 713 719 714 717 716 728 717 712 718 735 728 720 720 720 724 732 739 745
803 796 790 780 772 767 757 755 754 751 751 700 684 681 686 687 699 683 689 699 707 720 715 720 700 709 715 717 709 726 695 698 711 728 754 715 761 727 718 721 721 720 724 731 736
802 796 790 788 782 769 759 758 755 750 760 657 667 658 668 685 682 686 680 692 709 707 709 716 709 708 716 712 700 714 689 700 704 716 723 729 748 725 710 721 717 714 715 719 727
800 794 789 783 779 767 762 759 754 760 744 673 662 674 680 680 683 673 682 685 689 701 696 700 682 691 695 694 692 690 700 701 702 713 749 724 735 725 716 705 701 700 705 709 716
795 789 784 784 770 764 763 757 759 746 664 665 673 670 676 683 687 681 692 700 711 727 720 703 698 684 683 700 691 696 713 747 755 747 753 710 726 717 689 679 684 692 697 701 705
791 782 772 771 767 766 764 760 757 694 688 637 650 662 680 671 681 681 687 699 692 695 709 719 728 692 678 693 702 702 708 735 769 757 742 704 734 710 676 670 672 676 683 690 699
789 777 767 759 759 761 760 754 718 699 661 658 652 664 674 666 670 680 678 688 682 685 706 706 710 674 674 675 683 700 715 693 720 710 730 713 698 681 669 673 673 677 679 685 690
793 778 757 752 752 756 755 738 709 679 666 669 677 655 667 665 670 673 673 663 675 669 669 682 706 675 673 673 676 687 683 720 709 753 756 721 711 715 692 686 679 680 680 679 680
791 770 747 747 751 750 745 730 715 693 694 695 684 672 658 654 654 660 666 658 654 662 663 673 682 680 669 684 696 696 700 693 696 709 736 742 717 673 678 676 678 676 673 670 673
790 772 744 749 751 738 735 728 718 698 689 685 679 676 676 667 665 650 654 648 635 646 667 664 677 692 677 656 661 673 687 688 709 729 706 711 709 647 656 661 664 667 665 661 662
789 767 747 745 747 734 722 714 708 703 695 691 684 678 675 679 685 656 641 621 624 636 653 654 679 701 694 667 657 679 676 674 680 689 713 730 715 651 650 652 655 661 662 662 665
796 762 732 734 733 733 723 711 703 690 689 684 689 682 685 685 674 673 657 628 618 625 640 641 663 682 692 683 661 683 680 674 681 701 705 700 697 674 663 661 659 660 660 663 664
794 779 769 758 744 734 724 715 713 707 693 693 699 695 697 698 685 677 660 644 628 632 640 645 670 661 663 658 657 660 671 676 682 678 698 689 688 672 663 659 656 654 659 663 666
799 795 784 762 747 743 732 728 729 720 709 702 703 696 692 697 689 687 682 659 656 644 648 643 672 665 669 659 660 664 654 660 667 671 674 676 679 651 648 645 650 653 658 663 664
802 799 791 767 749 739 732 729 722 717 709 707 709 711 708 704 700 699 695 687 681 681 670 656 662 675 681 664 666 680 657 651 656 656 665 684 666 651 653 652 651 650 651 655 658